WetterOnline ( https://www.wetteronline.de )

Wetter aktuell Felsberg

Aktuelles Wetter: Schauenburg-Elgershausen (317m)

6-stündlich | Neueste Meldungen
Ortszeit Temperatur Wetter
Do, 18.07. 8:00 13.0° C leicht bewölkt
Do, 18.07. 2:00 10.4° C wolkenlos
Mi, 17.07. 20:00 16.1° C bedeckt
Mi, 17.07. 14:00 15.1° C bedeckt
Mi, 17.07. 8:00 13.6° C bedeckt
Mi, 17.07. 2:00 12.2° C bewölkt
Di, 16.07. 20:00 14.6° C bedeckt
Di, 16.07. 14:00 13.7° C bedeckt
Ortszeit Temperatur Wetter
Do, 18.07. 11:10 18.7° C wolkig
Do, 18.07. 11:00 18.6° C leicht bewölkt
Do, 18.07. 10:50 18.6° C wolkig
Do, 18.07. 10:40 18.3° C bedeckt
Do, 18.07. 10:30 17.5° C bedeckt
Do, 18.07. 10:20 17.5° C bedeckt
Do, 18.07. 10:00 15.8° C wolkig
Do, 18.07. 9:30 16.1° C bedeckt
Do, 18.07. 9:00 15.4° C wolkig
Do, 18.07. 8:30 13.9° C bedeckt
Ortszeit Relative Feuchte Sichtweite
Do, 18.07. 8:00 92% 23 km
Do, 18.07. 2:00 96% 24 km
Mi, 17.07. 20:00 75% 45 km
Mi, 17.07. 14:00 77% 35 km
Mi, 17.07. 8:00 82% 28 km
Mi, 17.07. 2:00 91% 25 km
Di, 16.07. 20:00 79% 30 km
Di, 16.07. 14:00 79% 40 km
Ortszeit Relative Feuchte Sichtweite
Do, 18.07. 11:10 69% -
Do, 18.07. 11:00 70% 30 km
Do, 18.07. 10:50 70% -
Do, 18.07. 10:40 72% -
Do, 18.07. 10:30 73% 22 km
Do, 18.07. 10:20 73% -
Do, 18.07. 10:00 81% 25 km
Do, 18.07. 9:30 82% 29 km
Do, 18.07. 9:00 83% 35 km
Do, 18.07. 8:30 87% 26 km
Ortszeit Niederschlagsmenge Niederschlagsart
Do, 18.07. 8:00 0.0 l/m2 in 12 Std. -
Do, 18.07. 2:00 0.0 l/m2 in 6 Std. -
Mi, 17.07. 20:00 0.1 l/m2 in 12 Std. -
Mi, 17.07. 14:00 0.1 l/m2 in 6 Std. Sprühregen
Mi, 17.07. 8:00 0.0 l/m2 in 12 Std. -
Mi, 17.07. 2:00 0.0 l/m2 in 6 Std. -
Di, 16.07. 20:00 0.0 l/m2 in 12 Std. -
Di, 16.07. 14:00 0.0 l/m2 in 6 Std. -
Ortszeit Niederschlagsmenge Niederschlagsart
Do, 18.07. 11:10 keine Meldung -
Do, 18.07. 11:00 0.0 l/m2 in 1 Std. -
Do, 18.07. 10:50 keine Meldung -
Do, 18.07. 10:40 keine Meldung -
Do, 18.07. 10:30 0.0 l/m2 in 1 Std. -
Do, 18.07. 10:20 keine Meldung -
Do, 18.07. 10:00 0.0 l/m2 in 1 Std. -
Do, 18.07. 9:30 0.0 l/m2 in 1 Std. -
Do, 18.07. 9:00 0.0 l/m2 in 1 Std. -
Do, 18.07. 8:30 0.0 l/m2 in 1 Std. -
Ortszeit Stärke Spitze Richtung
km/h Bft. km/h Grad Sektor
Do, 18.07. 8:00 4 1 7 150° SO
Do, 18.07. 2:00 6 1 9 310° NW
Mi, 17.07. 20:00 7 2 14 290° W
Mi, 17.07. 14:00 4 1 14 100° O
Mi, 17.07. 8:00 0 0 11 - -
Mi, 17.07. 2:00 2 1 17 280° W
Di, 16.07. 20:00 9 2 26 330° NW
Di, 16.07. 14:00 13 3 24 300° NW
Ortszeit Stärke Spitze Richtung
km/h Bft. km/h Grad Sektor
Do, 18.07. 11:10 7 2 - 100° O
Do, 18.07. 11:00 7 2 14 160° S
Do, 18.07. 10:50 7 2 - 160° S
Do, 18.07. 10:40 7 2 - 150° SO
Do, 18.07. 10:30 4 1 14 120° SO
Do, 18.07. 10:20 4 1 - 120° SO
Do, 18.07. 10:00 9 2 13 140° SO
Do, 18.07. 9:30 4 1 11 140° SO
Do, 18.07. 9:00 4 1 7 140° SO
Do, 18.07. 8:30 0 0 7 - -
Ortszeit Untergrenze Bedeckung Gattung
total tief tief mittel hoch
Do, 18.07. 8:00 1500 m 8/8 1/8 - - -
Do, 18.07. 2:00 - 0/8 0/8 - - -
Mi, 17.07. 20:00 900 m 8/8 8/8 - - -
Mi, 17.07. 14:00 480 m 8/8 8/8 - - -
Mi, 17.07. 8:00 510 m 8/8 8/8 - - -
Mi, 17.07. 2:00 510 m 7/8 7/8 - - -
Di, 16.07. 20:00 510 m 8/8 8/8 - - -
Di, 16.07. 14:00 390 m 8/8 8/8 - - -
Ortszeit Bedeckungsgrad in Achtel und Wolkenuntergrenze
Do, 18.07. 11:10 2(660m) 7(5700m) 7(9000m)
Do, 18.07. 11:00 1(600m) 8(5100m) 8(6000m)
Do, 18.07. 10:50 1(600m) 8(5100m) 8(6000m)
Do, 18.07. 10:40 8(5100m) 8(6000m) 8(7200m)
Do, 18.07. 10:30 8(5100m) 8(6300m) 8(6900m)
Do, 18.07. 10:20 8(5100m) 8(6300m) 8(6900m)
Do, 18.07. 10:00 3(5100m) 8(6000m) 8(8100m)
Do, 18.07. 9:30 8(5100m) 8(6600m) 8(7200m)
Do, 18.07. 9:00 8(5100m) 8(7500m) 8(8100m)
Do, 18.07. 8:30 8(5100m)
Ortszeit Luftdruck NN (hPa) Tendenz (hPa in 3 Std.)
Do, 18.07. 8:00 1013 - 0,4
Do, 18.07. 2:00 1014 - 0,5
Mi, 17.07. 20:00 1014 - 0,9
Mi, 17.07. 14:00 1016 + 0,1
Mi, 17.07. 8:00 1016 - 0,4
Mi, 17.07. 2:00 1018 - 0,4
Di, 16.07. 20:00 1018 - 0,2
Di, 16.07. 14:00 1019 + 0,1
Ortszeit Luftdruck NN (hPa) Tendenz (hPa in 3 Std.)
Do, 18.07. 11:10 1012 keine Meldung
Do, 18.07. 11:00 1012 - 0,1
Do, 18.07. 10:50 1012 keine Meldung
Do, 18.07. 10:40 1012 keine Meldung
Do, 18.07. 10:30 1012 - 0,1
Do, 18.07. 10:20 1012 keine Meldung
Do, 18.07. 10:00 1013 - 0,1
Do, 18.07. 9:30 1012 - 0,3
Do, 18.07. 9:00 1013 - 0,2
Do, 18.07. 8:30 1013 0,0
Ortszeit Schneehöhe (cm)
Do, 18.07. 8:00 -
Do, 18.07. 2:00 -
Mi, 17.07. 20:00 -
Mi, 17.07. 14:00 -
Mi, 17.07. 8:00 -
Mi, 17.07. 2:00 -
Di, 16.07. 20:00 -
Di, 16.07. 14:00 -
Ortszeit Schneehöhe (cm)
Do, 18.07. 11:10 -
Do, 18.07. 11:00 -
Do, 18.07. 10:50 -
Do, 18.07. 10:40 -
Do, 18.07. 10:30 -
Do, 18.07. 10:20 -
Do, 18.07. 10:00 -
Do, 18.07. 9:30 -
Do, 18.07. 9:00 -
Do, 18.07. 8:30 -
Link zu dieser Seite / Seite empfehlen

Das Wetter in ...